Flag for Azerbaijan Weather past 2 weeks in Ganja, Azerbaijan

Now
99 °F

Scattered clouds.


Feels Like: 95 °F
Forecast: 74 / 91 °F
Wind: 20 mph from East

Location: Gyanca Airport

Current Time: Aug 29, 2014 at 5:22:17 PM

Latest Report: Aug 29, 2014 at 4:30 PM


Visibility: N/A

Pressure: 29.74 "Hg

Humidity: 17%

Dew point: 46 °F

Location of GanjaLocation

Historic Weather in Ganja — Graph

°F

Ganja temperature yesterday

Maximum temperature yesterday: 99 °F (at 4:00 PM)
Minimum temperature yesterday: 75 °F (at 6:00 AM)
Average temperature yesterday: 87 °F

Past Weeks' High & Low Weather Summary

 TemperatureHumidityPressure
High106 °F (Aug 19, 5:00 PM)78% (Aug 22, 8:30 AM)30.07 "Hg (Aug 22, 8:30 AM)
Low70 °F (Aug 15, 6:30 AM)12% (Aug 19, 5:00 PM)29.68 "Hg (Aug 18, 7:00 PM)
Average85 °F38%29.87 "Hg
* Reported Aug 14 4:00 PM — Aug 29 4:00 PM, Ganja, Weather by CustomWeather, © 2014

Note: Actual official high and low records may vary slightly from our data, if they occured in-between our weather recording intervals... More about our weather records

Advertising

Ganja weather history for previous 24 hours

 ConditionsComfort  
Time TempWeatherWind HumidityBarometerVisibility
4:00 PM
Aug 29
97 °FScattered clouds.21 mph25%29.74 "HgN/A
3:30 PM93 °FPartly sunny.8 mph30%29.80 "HgN/A
3:00 PM95 °FPartly sunny.6 mph26%29.80 "HgN/A
2:30 PM95 °FScattered clouds.5 mph28%29.83 "HgN/A
2:00 PM95 °FPassing clouds.5 mph25%29.83 "HgN/A
1:30 PM93 °FPassing clouds.5 mph32%29.83 "HgN/A
1:00 PM91 °FPassing clouds.7 mph32%29.83 "HgN/A
12:30 PM91 °FPassing clouds.10 mph34%29.83 "HgN/A
12:00 PM91 °FPassing clouds.9 mph32%29.83 "HgN/A
11:30 AM90 °FPassing clouds.9 mph33%29.83 "HgN/A
11:00 AM88 °FPassing clouds.7 mph38%29.86 "HgN/A
10:30 AM86 °FPassing clouds.8 mph38%29.83 "HgN/A
10:00 AM86 °FPassing clouds.8 mph38%29.83 "HgN/A
9:30 AM86 °FPassing clouds.6 mph35%29.83 "HgN/A
9:00 AM84 °FPassing clouds.7 mph33%29.83 "HgN/A
8:30 AM81 °FPassing clouds.7 mph34%29.83 "HgN/A
8:00 AM77 °FPassing clouds.5 mph39%29.83 "HgN/A
7:30 AM75 °FPassing clouds.5 mph41%29.83 "HgN/A
7:00 AM75 °FPassing clouds.2 mph39%29.83 "HgN/A
6:30 AM77 °FPassing clouds.3 mph39%29.83 "HgN/A
6:00 AM77 °FPassing clouds.6 mph39%29.83 "HgN/A
5:30 AM77 °FPassing clouds.5 mph39%29.83 "HgN/A
5:00 AM77 °FPassing clouds.3 mph39%29.83 "HgN/A
4:30 AM77 °FPassing clouds.5 mph34%29.83 "HgN/A
4:00 AM79 °FPassing clouds.5 mph34%29.80 "HgN/A
3:30 AM79 °FPassing clouds.2 mph34%29.80 "HgN/A
3:00 AM82 °FPassing clouds.3 mph30%29.80 "HgN/A
2:30 AM81 °FPassing clouds.6 mph32%29.80 "HgN/A
2:00 AM82 °FPassing clouds.7 mph30%29.80 "HgN/A
1:30 AM82 °FPassing clouds.7 mph28%29.80 "HgN/A
1:00 AM81 °FPassing clouds.7 mph32%29.80 "HgN/A
12:30 AM81 °FPassing clouds.5 mph32%29.80 "HgN/A
12:00 AM82 °FPassing clouds.5 mph30%29.80 "HgN/A
11:30 PM
Aug 28
82 °FPassing clouds.2 mph32%29.77 "HgN/A
11:00 PM88 °FPassing clouds.2 mph25%29.77 "HgN/A
10:30 PM88 °FScattered clouds.7 mph25%29.77 "HgN/A
10:00 PM90 °FPartly sunny.9 mph24%29.77 "HgN/A
9:30 PM91 °FPartly sunny.10 mph21%29.77 "HgN/A
9:00 PM90 °FPartly sunny.14 mph24%29.74 "HgN/A
8:30 PM91 °FScattered clouds.12 mph21%29.74 "HgN/A
8:00 PM93 °FScattered clouds.9 mph19%29.74 "HgN/A
7:30 PM93 °FScattered clouds.9 mph20%29.74 "HgN/A
7:00 PM95 °FScattered clouds.12 mph19%29.74 "HgN/A
6:30 PM97 °FPassing clouds.14 mph17%29.74 "HgN/A
6:00 PM97 °FPassing clouds.12 mph18%29.74 "HgN/A
5:30 PM97 °FPassing clouds.13 mph19%29.74 "HgN/A
Weather by CustomWeather, © 2014

See weather overviewHow to use our weather pages